• In Deutschland
  • Länderverzeichnis
  • Für 7 Tage
  • Wassertemperatur
  • Satellitenkarten
  • Wetterkarte
  • Widgets
  • user-avatar
    Anmelden

    Stündliche Wetter Warna

    Heute, 20 November, Montag

    Zeit Temperatur Niederschläge Wind Luftdruck Luftfeuchtigkeit
    00:00 +7°C° 0,2 mm 3 m/S 741 mmHg 82%
    01:00 +6°C° 0,2 mm 4 m/S 741 mmHg 83%
    02:00 +6°C° 0,2 mm 4 m/S 741 mmHg 84%
    03:00 +6°C° 0,4 mm 4 m/S 741 mmHg 85%
    04:00 +5°C° 0,4 mm 5 m/S 741 mmHg 85%
    05:00 +5°C° 0,4 mm 5 m/S 741 mmHg 86%
    06:00 +4°C° 1 mm 6 m/S 741 mmHg 86%
    07:00 +4°C° 1 mm 6 m/S 741 mmHg 86%
    08:00 +4°C° 1 mm 7 m/S 742 mmHg 87%
    09:00 +4°C° 1,4 mm 7 m/S 742 mmHg 83%
    10:00 +4°C° 1,4 mm 7 m/S 742 mmHg 79%
    11:00 +4°C° 1,4 mm 7 m/S 742 mmHg 75%
    12:00 +4°C° 0,8 mm 8 m/S 742 mmHg 72%
    13:00 +4°C° 0,8 mm 8 m/S 742 mmHg 69%
    14:00 +3°C° 0,8 mm 9 m/S 742 mmHg 66%
    15:00 +3°C° 0,4 mm 9 m/S 743 mmHg 67%
    16:00 +4°C° 0,4 mm 8 m/S 743 mmHg 68%
    17:00 +4°C° 0,4 mm 8 m/S 743 mmHg 69%
    18:00 +4°C° 0,1 mm 8 m/S 744 mmHg 70%
    19:00 +4°C° 0,1 mm 7 m/S 744 mmHg 72%
    20:00 +4°C° 0,1 mm 7 m/S 744 mmHg 73%
    21:00 +3°C° 0 mm 7 m/S 745 mmHg 71%
    22:00 +3°C° 0 mm 7 m/S 745 mmHg 70%
    23:00 +2°C° 0 mm 7 m/S 745 mmHg 68%

    Morgen, 21 November, Dienstag

    Zeit Temperatur Niederschläge Wind Luftdruck Luftfeuchtigkeit
    00:00 +2°C° 0 mm 7 m/S 746 mmHg 68%
    01:00 +2°C° 0 mm 7 m/S 746 mmHg 68%
    02:00 0°C° 0 mm 7 m/S 746 mmHg 69%
    03:00 0°C° 0 mm 7 m/S 746 mmHg 70%
    04:00 0°C° 0 mm 7 m/S 747 mmHg 72%
    05:00 +1°C° 0 mm 6 m/S 747 mmHg 73%
    06:00 -1°C° 0 mm 6 m/S 747 mmHg 75%
    07:00 -1°C° 0 mm 6 m/S 747 mmHg 76%
    08:00 -1°C° 0 mm 6 m/S 748 mmHg 78%
    09:00 +2°C° 0 mm 5 m/S 748 mmHg 72%
    10:00 +3°C° 0 mm 5 m/S 748 mmHg 66%
    11:00 +5°C° 0 mm 5 m/S 748 mmHg 60%
    12:00 +6°C° 0 mm 5 m/S 748 mmHg 56%
    13:00 +6°C° 0 mm 5 m/S 747 mmHg 53%
    14:00 +7°C° 0 mm 6 m/S 747 mmHg 50%
    15:00 +6°C° 0 mm 5 m/S 747 mmHg 53%
    16:00 +6°C° 0 mm 5 m/S 747 mmHg 56%
    17:00 +5°C° 0 mm 4 m/S 746 mmHg 59%
    18:00 +5°C° 0 mm 4 m/S 746 mmHg 61%
    19:00 +5°C° 0 mm 4 m/S 746 mmHg 63%
    20:00 +4°C° 0 mm 4 m/S 746 mmHg 65%
    21:00 +4°C° 0 mm 4 m/S 746 mmHg 65%
    22:00 +3°C° 0 mm 5 m/S 746 mmHg 65%
    23:00 +3°C° 0 mm 5 m/S 746 mmHg 66%

    übermorgen, 22 November, Mittwoch

    Zeit Temperatur Niederschläge Wind Luftdruck Luftfeuchtigkeit
    00:00 +3°C° 0 mm 6 m/S 746 mmHg 66%
    01:00 +3°C° 0 mm 6 m/S 746 mmHg 67%
    02:00 +3°C° 0 mm 6 m/S 745 mmHg 67%
    03:00 +3°C° 0 mm 6 m/S 745 mmHg 69%
    04:00 +3°C° 0 mm 6 m/S 745 mmHg 71%
    05:00 +3°C° 0 mm 6 m/S 745 mmHg 72%
    06:00 +3°C° 0 mm 6 m/S 745 mmHg 73%
    07:00 +4°C° 0 mm 6 m/S 746 mmHg 73%
    08:00 +4°C° 0 mm 6 m/S 746 mmHg 74%
    09:00 +5°C° 0 mm 6 m/S 746 mmHg 72%
    10:00 +6°C° 0 mm 7 m/S 747 mmHg 69%
    11:00 +8°C° 0 mm 7 m/S 747 mmHg 67%
    12:00 +8°C° 0 mm 7 m/S 747 mmHg 67%
    13:00 +8°C° 0 mm 6 m/S 747 mmHg 68%
    14:00 +8°C° 0 mm 6 m/S 748 mmHg 68%
    15:00 +7°C° 0 mm 5 m/S 748 mmHg 68%
    16:00 +6°C° 0 mm 5 m/S 749 mmHg 68%
    17:00 +5°C° 0 mm 5 m/S 749 mmHg 68%
    18:00 +5°C° 0 mm 4 m/S 750 mmHg 67%
    19:00 +5°C° 0 mm 4 m/S 750 mmHg 67%
    20:00 +5°C° 0 mm 3 m/S 751 mmHg 66%
    21:00 +4°C° 0 mm 3 m/S 751 mmHg 66%
    22:00 +5°C° 0 mm 2 m/S 752 mmHg 66%
    23:00 +5°C° 0 mm 2 m/S 752 mmHg 66%

    23 November, Donnerstag

    Zeit Temperatur Niederschläge Wind Luftdruck Luftfeuchtigkeit
    00:00 +5°C° 0 mm 2 m/S 752 mmHg 66%
    01:00 +5°C° 0 mm 2 m/S 752 mmHg 65%
    02:00 +6°C° 0 mm 1 m/S 752 mmHg 65%
    03:00 +6°C° 0 mm 1 m/S 752 mmHg 65%
    04:00 +6°C° 0 mm 1 m/S 752 mmHg 64%
    05:00 +6°C° 0 mm 1 m/S 753 mmHg 64%
    06:00 +6°C° 0 mm 1 m/S 753 mmHg 64%
    07:00 +6°C° 0 mm 1 m/S 753 mmHg 65%
    08:00 +6°C° 0 mm 1 m/S 753 mmHg 65%
    09:00 +7°C° 0 mm 1 m/S 754 mmHg 63%
    10:00 +9°C° 0 mm 1 m/S 754 mmHg 61%
    11:00 +9°C° 0 mm 2 m/S 754 mmHg 59%
    12:00 +9°C° 0 mm 2 m/S 754 mmHg 59%
    13:00 +10°C° 0 mm 2 m/S 754 mmHg 59%
    14:00 +12°C° 0 mm 2 m/S 753 mmHg 59%
    15:00 +11°C° 0 mm 1 m/S 753 mmHg 63%
    16:00 +10°C° 0 mm 1 m/S 753 mmHg 68%
    17:00 +9°C° 0 mm 1 m/S 753 mmHg 72%
    18:00 +9°C° 0 mm 1 m/S 753 mmHg 74%
    19:00 +9°C° 0 mm 1 m/S 753 mmHg 77%
    20:00 +7°C° 0 mm 2 m/S 753 mmHg 79%
    21:00 +7°C° 0 mm 2 m/S 753 mmHg 81%
    22:00 +7°C° 0 mm 2 m/S 753 mmHg 82%
    23:00 +7°C° 0 mm 2 m/S 753 mmHg 84%

    24 November, Freitag

    Zeit Temperatur Niederschläge Wind Luftdruck Luftfeuchtigkeit
    00:00 +7°C° 0 mm 2 m/S 753 mmHg 85%
    01:00 +6°C° 0 mm 2 m/S 753 mmHg 86%
    02:00 +6°C° 0 mm 2 m/S 753 mmHg 87%
    03:00 +6°C° 0 mm 2 m/S 753 mmHg 86%
    04:00 +6°C° 0 mm 2 m/S 752 mmHg 86%
    05:00 +6°C° 0 mm 2 m/S 752 mmHg 86%
    06:00 +6°C° 0 mm 2 m/S 752 mmHg 85%
    07:00 +6°C° 0 mm 2 m/S 753 mmHg 84%
    08:00 +6°C° 0 mm 2 m/S 753 mmHg 83%
    09:00 +7°C° 0 mm 2 m/S 753 mmHg 75%
    10:00 +9°C° 0 mm 2 m/S 753 mmHg 68%
    11:00 +11°C° 0 mm 3 m/S 753 mmHg 60%
    12:00 +12°C° 0 mm 3 m/S 753 mmHg 58%
    13:00 +12°C° 0 mm 3 m/S 752 mmHg 55%
    14:00 +13°C° 0 mm 3 m/S 752 mmHg 53%
    15:00 +13°C° 0 mm 2 m/S 752 mmHg 58%
    16:00 +12°C° 0 mm 2 m/S 752 mmHg 62%
    17:00 +10°C° 0 mm 2 m/S 752 mmHg 67%
    18:00 +9°C° 0 mm 2 m/S 752 mmHg 70%
    19:00 +9°C° 0 mm 2 m/S 752 mmHg 72%
    20:00 +8°C° 0 mm 2 m/S 752 mmHg 75%
    21:00 +8°C° 0 mm 2 m/S 752 mmHg 75%
    22:00 +8°C° 0 mm 2 m/S 752 mmHg 75%
    23:00 +7°C° 0 mm 2 m/S 753 mmHg 76%

    25 November, Samstag

    Zeit Temperatur Niederschläge Wind Luftdruck Luftfeuchtigkeit
    00:00 +7°C° 0 mm 2 m/S 753 mmHg 76%
    01:00 +7°C° 0 mm 2 m/S 753 mmHg 76%
    02:00 +7°C° 0 mm 2 m/S 753 mmHg 75%
    03:00 +7°C° 0 mm 2 m/S 753 mmHg 76%
    04:00 +7°C° 0 mm 2 m/S 753 mmHg 76%
    05:00 +6°C° 0 mm 2 m/S 753 mmHg 76%
    06:00 +5°C° 0 mm 3 m/S 754 mmHg 77%
    07:00 +5°C° 0 mm 3 m/S 754 mmHg 78%
    08:00 +5°C° 0 mm 3 m/S 755 mmHg 79%
    09:00 +8°C° 0 mm 3 m/S 755 mmHg 74%
    10:00 +9°C° 0 mm 3 m/S 756 mmHg 70%
    11:00 +11°C° 0 mm 3 m/S 756 mmHg 65%
    12:00 +11°C° 0 mm 3 m/S 756 mmHg 64%
    13:00 +11°C° 0 mm 4 m/S 756 mmHg 63%
    14:00 +12°C° 0 mm 4 m/S 756 mmHg 63%
    15:00 +11°C° 0 mm 4 m/S 756 mmHg 68%
    16:00 +10°C° 0 mm 4 m/S 757 mmHg 74%
    17:00 +8°C° 0 mm 4 m/S 757 mmHg 80%
    18:00 +7°C° 0 mm 4 m/S 757 mmHg 83%
    19:00 +8°C° 0 mm 3 m/S 757 mmHg 86%
    20:00 +7°C° 0 mm 3 m/S 758 mmHg 88%
    21:00 +7°C° 0 mm 3 m/S 758 mmHg 89%
    22:00 +7°C° 0 mm 3 m/S 758 mmHg 89%
    23:00 +7°C° 0 mm 2 m/S 758 mmHg 89%
    Mehr zeigen